[[{"header":{"parameterUnit":"m.s-1","parameterCategory":1,"la1":30.2992,"la2":30.254,"lo1":-89.0895,"lo2":-89.0443,"dy":0.0025,"dx":0.0025,"nx":19,"ny":19,"refTime":"2026-05-08T03:00:00:Z","depth":0,"parameterNumber":2,"parameterNumberName":"U-component_of_WINDS"},"data":[0,0,0,0.0127,0.0127,0.0149,0.0149,0.017,0.0171,0,0,0,0,0,0,0,0,0,0,0,0.0118,0.0118,0.0127,0.0127,0.0149,0.0149,0.017,0.0171,0,0,0,0,0,0,0,0,0,0,0,0.0118,0.0118,0.0118,0.0127,0.0149,0.0149,0.017,0.0156,0,0,0,0,0,0,0,0,0,0,0.0135,0.0126,0.0118,0.0118,0.0127,0.0149,0.0149,0.0155,0.0157,0.0158,0,0.016,0,0.0166,0.0172,0.0172,0,0,0,0.0128,0.0125,0.0132,0.0118,0.0127,0.0149,0.014,0.0156,0.0158,0.016,0.0161,0.0162,0.0166,0.0172,0.0172,0.0177,0.0177,0,0,0.0127,0.0121,0.0131,0.0133,0.0132,0.0139,0.014,0.0157,0.0157,0.0161,0.0162,0.0166,0.0172,0.0172,0.0178,0.0177,0,0,0,0.0123,0.012,0.0127,0.0132,0.0137,0.0139,0.0141,0.0156,0.0159,0.0162,0.0167,0.0172,0.0172,0.0178,0.0178,0.0169,0,0,0,0.0122,0.0117,0.0127,0.0123,0.0137,0.0147,0.014,0.0158,0.016,0.0167,0.0172,0.0172,0.0178,0.0178,0.017,0.0166,0,0,0,0.0117,0.0117,0.0119,0.0122,0.0132,0.0147,0.0151,0.0159,0.0163,0.0172,0.0172,0.0178,0.0178,0.017,0.0167,0.0165,0,0,0,0.011,0.0112,0.0119,0.0123,0.0132,0.0142,0.0151,0.016,0.0166,0.0172,0.0178,0.0178,0.017,0.0167,0.0165,0.0162,0.016,0,0,0.0109,0.0112,0.0115,0.0121,0.0129,0.014,0.0146,0.0158,0.0164,0.0172,0.0172,0.0169,0.0167,0.0165,0.0153,0.0151,0,0,0,0.0112,0.0114,0.0117,0.0124,0.0133,0.014,0.0152,0.0155,0.0162,0.0168,0.0169,0.0167,0.0166,0.0165,0.0164,0.0162,0.0177,0.0177,0.0177,0.0102,0.011,0.0114,0.0123,0.0129,0.014,0.0144,0.0151,0.0158,0.0157,0.016,0.0152,0.015,0.0149,0.0147,0.0159,0.0159,0.0159,0.0159,0.0101,0.0104,0.0111,0.0117,0.0124,0.0129,0.0138,0.0142,0.0146,0.0151,0.0151,0.0155,0.0147,0.0146,0.0158,0.0158,0.0159,0.0159,0.0159,0.0095,0.0098,0.0102,0.011,0.0114,0.0123,0.0126,0.0132,0.0138,0.0137,0.0139,0.0139,0.0139,0.0138,0.0138,0.0138,0.0138,0.0138,0.0138,0.0087,0.0092,0.0095,0.0103,0.0106,0.011,0.0119,0.0122,0.0126,0.013,0.013,0.0135,0.0145,0.0147,0.0137,0.0137,0.0137,0.0137,0.0137,0.0083,0.0084,0.0088,0.0091,0.0099,0.0101,0.0108,0.0112,0.0115,0.0116,0.012,0.0127,0.013,0.0131,0.0133,0.012,0.012,0.012,0.012,0.0078,0.0079,0.0083,0.0087,0.0091,0.0097,0.0098,0.0103,0.0108,0.011,0.0112,0.0115,0.0116,0.0118,0.0119,0.0121,0.0105,0.0105,0.0105,0.0074,0.0076,0.0077,0.0083,0.0089,0.0092,0.0092,0.0094,0.0101,0.0105,0.011,0.0111,0.0115,0.0117,0.0122,0.0124,0.0127,0,0]},{"header":{"parameterUnit":"m.s-1","parameterCategory":1,"la1":30.2992,"la2":30.254,"lo1":-89.0895,"lo2":-89.0443,"dy":0.0025,"dx":0.0025,"nx":19,"ny":19,"refTime":"2026-05-08T03:00:00:Z","depth":0,"parameterNumber":3,"parameterNumberName":"V-component_of_WINDS"},"data":[0,0,0,2.5138,2.5137,2.5107,2.5106,2.508,2.508,0,0,0,0,0,0,0,0,0,0,0,2.5155,2.5155,2.5138,2.5137,2.5107,2.5106,2.508,2.508,0,0,0,0,0,0,0,0,0,0,0,2.5155,2.5155,2.5155,2.5137,2.5107,2.5106,2.508,2.5099,0,0,0,0,0,0,0,0,0,0,2.5126,2.515,2.5155,2.5155,2.5137,2.5107,2.5106,2.5099,2.5098,2.51,0,2.5104,0,2.5092,2.5079,2.5079,0,0,0,2.5131,2.5152,2.5136,2.5155,2.5137,2.5107,2.5119,2.5098,2.5096,2.5097,2.5103,2.5102,2.5091,2.5079,2.5079,2.5113,2.5113,0,0,2.5133,2.5154,2.5138,2.5135,2.5141,2.512,2.5118,2.5097,2.5105,2.5103,2.5101,2.5091,2.5079,2.5079,2.5112,2.5113,0,0,0,2.5142,2.5155,2.514,2.5137,2.513,2.5119,2.5117,2.5106,2.5099,2.5101,2.5091,2.5079,2.5079,2.5112,2.5113,2.5156,0,0,0,2.5143,2.516,2.5141,2.5153,2.5131,2.5118,2.5126,2.51,2.5097,2.5091,2.5079,2.5079,2.5111,2.5112,2.5153,2.5173,0,0,0,2.5154,2.5161,2.516,2.5154,2.5142,2.5117,2.5109,2.5099,2.5091,2.5079,2.5079,2.5111,2.5112,2.5151,2.5169,2.5188,0,0,0,2.5172,2.5198,2.5161,2.5185,2.5143,2.5144,2.5109,2.5109,2.5104,2.5079,2.5111,2.5112,2.5151,2.5167,2.5186,2.5209,2.522,0,0,2.5216,2.5204,2.5217,2.5183,2.5196,2.5147,2.5167,2.5142,2.5121,2.5117,2.5117,2.5154,2.5169,2.5188,2.5274,2.5283,0,0,0,2.5238,2.5247,2.5246,2.5242,2.5224,2.521,2.518,2.5171,2.5166,2.5123,2.5165,2.5173,2.5183,2.5193,2.5201,2.5209,2.5118,2.5118,2.5117,2.533,2.5303,2.5322,2.5292,2.5288,2.5257,2.5252,2.5234,2.5207,2.5217,2.5216,2.5272,2.5284,2.5289,2.5298,2.5225,2.5225,2.5225,2.5225,2.5393,2.5402,2.5366,2.5372,2.5343,2.5348,2.5319,2.53,2.53,2.527,2.5278,2.5249,2.53,2.5306,2.5228,2.5228,2.5227,2.5227,2.5227,2.5451,2.5451,2.544,2.5431,2.5428,2.5395,2.5398,2.5371,2.5345,2.5353,2.5349,2.5348,2.5345,2.5353,2.5353,2.5353,2.5353,2.5353,2.5353,2.5517,2.5502,2.5508,2.5491,2.5485,2.5474,2.5443,2.5436,2.5422,2.5402,2.5402,2.5375,2.531,2.5295,2.5356,2.5356,2.5355,2.5355,2.5355,2.5593,2.5571,2.5579,2.5574,2.5552,2.5551,2.5516,2.5505,2.5495,2.5497,2.5468,2.5424,2.541,2.5404,2.5391,2.5473,2.5473,2.5473,2.5473,2.5643,2.5632,2.5635,2.5628,2.5617,2.5587,2.5597,2.5573,2.5545,2.5538,2.5522,2.5502,2.5497,2.5485,2.5477,2.5465,2.5565,2.5565,2.5565,2.5688,2.5676,2.569,2.5662,2.5643,2.5627,2.5636,2.5629,2.5593,2.5568,2.5531,2.5528,2.5496,2.5487,2.5463,2.5451,2.5428,0,0]}]]